Canton, GA

2:14 AM EDT on March 24, 2017 (GMT -0400)
Canton

Weather History for KCNI - December, 2013

Change the Weather History Date:

Monday, December 23, 2013

  Actual Average (KMGE) Record (KMGE)
Temperature  
Mean Temperature 44 °F -  
Max Temperature 55 °F 48 °F 64 °F (1996)
Min Temperature 32 °F 31 °F 17 °F (2000)
Degree Days  
Heating Degree Days 21    
Moisture  
Dew Point 42 °F    
Average Humidity 85    
Maximum Humidity 94    
Minimum Humidity 70    
Precipitation  
Precipitation 0.00 in - - ()
Sea Level Pressure  
Sea Level Pressure 30.16 in    
Wind  
Wind Speed 4 mph (WNW)    
Max Wind Speed 15 mph    
Max Gust Speed 22 mph    
Visibility 8 miles    
Events Rain    
Averages and records for this station are not official NWS values.
T = Trace of Precipitation, MM = Missing Value Source: NWS Daily Summary

Daily Weather History Graph

Daily Weather History Graph

Search for Another Location

Airport or City:

Trip Planner

Search our weather history database for the weather conditions in past years. The results will help you decide how hot, cold, wet, or windy it might be!

Date:

Astronomy

Dec. 23, 2013 Rise Set
Actual Time 7:41 AM EST 5:32 PM EST
Civil Twilight 7:13 AM EST 6:00 PM EST
Nautical Twilight 6:41 AM EST 6:32 PM EST
Astronomical Twilight 6:11 AM EST 7:02 PM EST
Moon 11:26 PM EST (12/23) 11:19 AM EST (12/23)
Length of Visible Light 10h 47m
Length of Day
9h 51m
Waning Gibbous, 68% of the Moon is Illuminated
Dec 23
Waning Gibbous
Dec 25
Last Quarter
Jan 1
New
Jan 7
First Quarter
Jan 15
Full

Hourly Weather History & Observations

Time (EST) Temp. Windchill Dew Point Humidity Pressure Visibility Wind Dir Wind Speed Gust Speed Precip Events Conditions
12:15 AM 55.4 °F - 53.6 °F 94% 30.07 in 0.8 mi Calm Calm - N/A   Overcast
12:35 AM 55.4 °F - 53.6 °F 94% 30.08 in 1.5 mi Calm Calm - N/A   Overcast
12:55 AM 55.4 °F - 53.6 °F 94% 30.08 in 1.5 mi Calm Calm - N/A   Overcast
1:15 AM 55.4 °F - 53.6 °F 94% 30.07 in 3.0 mi Calm Calm - N/A Rain Light Rain
1:35 AM 55.4 °F - 53.6 °F 94% 30.07 in 2.0 mi Calm Calm - N/A Rain Light Rain
1:55 AM 55.4 °F - 53.6 °F 94% 30.08 in 2.0 mi WNW 3.5 mph - N/A Rain Light Rain
2:15 AM 53.6 °F - 51.8 °F 94% 30.09 in 4.0 mi WNW 4.6 mph - N/A Rain Light Rain
2:35 AM 53.6 °F - 51.8 °F 94% 30.10 in 10.0 mi WNW 5.8 mph - N/A   Mostly Cloudy
2:55 AM 51.8 °F - 50.0 °F 94% 30.08 in 10.0 mi NW 3.5 mph - N/A   Mostly Cloudy
3:15 AM 51.8 °F - 50.0 °F 94% 30.04 in 10.0 mi Calm Calm - N/A   Scattered Clouds
3:35 AM 51.8 °F - 50.0 °F 94% 30.08 in 3.0 mi West 3.5 mph - N/A   Mostly Cloudy
3:55 AM 51.8 °F - 50.0 °F 94% 30.11 in 10.0 mi Calm Calm - N/A   Mostly Cloudy
4:15 AM 51.8 °F - 50.0 °F 94% 30.09 in 5.0 mi Calm Calm - N/A   Overcast
4:35 AM 51.8 °F - 50.0 °F 94% 30.07 in 10.0 mi Calm Calm - N/A   Overcast
4:55 AM 51.8 °F - 50.0 °F 94% 30.08 in 1.2 mi NW 3.5 mph - N/A   Overcast
5:15 AM 51.8 °F - 50.0 °F 94% 30.11 in 5.0 mi Calm Calm - N/A   Overcast
5:35 AM 51.8 °F - 50.0 °F 94% 30.11 in 10.0 mi Calm Calm - N/A   Overcast
5:55 AM 51.8 °F - 50.0 °F 94% 30.11 in 10.0 mi Calm Calm - N/A   Scattered Clouds
6:15 AM 51.8 °F - 50.0 °F 94% 30.12 in 1.2 mi NW 4.6 mph - N/A   Overcast
6:35 AM 51.8 °F - 50.0 °F 94% 30.12 in 7.0 mi NW 4.6 mph - N/A Rain Light Rain
6:55 AM 50.0 °F - 48.2 °F 94% 30.11 in 10.0 mi Calm Calm - N/A   Light Drizzle
7:15 AM 50.0 °F - 48.2 °F 94% 30.12 in 10.0 mi WNW 3.5 mph - N/A   Overcast
7:35 AM 50.0 °F - 48.2 °F 94% 30.11 in 7.0 mi Calm Calm - N/A   Overcast
7:55 AM 50.0 °F - 48.2 °F 94% 30.11 in 7.0 mi Calm Calm - N/A Rain Light Rain
8:15 AM 50.0 °F - 48.2 °F 94% 30.14 in 7.0 mi WNW 4.6 mph - N/A   Mostly Cloudy
8:35 AM 51.8 °F - 50.0 °F 94% 30.14 in 10.0 mi WNW 4.6 mph - N/A   Overcast
8:55 AM 51.8 °F - 50.0 °F 94% 30.15 in 7.0 mi WNW 3.5 mph - N/A   Overcast
9:15 AM 51.8 °F - 50.0 °F 94% 30.14 in 5.0 mi WNW 5.8 mph - N/A   Overcast
9:35 AM 51.8 °F - 50.0 °F 94% 30.15 in 5.0 mi NW 6.9 mph 18.4 mph N/A   Overcast
9:55 AM 50.0 °F - 48.2 °F 94% 30.16 in 10.0 mi WNW 5.8 mph - N/A   Mostly Cloudy
10:15 AM 48.2 °F - 46.4 °F 93% 30.16 in 10.0 mi WNW 9.2 mph 18.4 mph N/A   Scattered Clouds
10:35 AM 48.2 °F - 46.4 °F 93% 30.17 in 10.0 mi WNW 8.1 mph 16.1 mph N/A   Clear
10:55 AM 46.4 °F 41.9 °F 44.6 °F 93% 30.17 in 10.0 mi WNW 9.2 mph - N/A   Scattered Clouds
11:15 AM 46.4 °F 42.9 °F 44.6 °F 93% 30.19 in 10.0 mi WNW 6.9 mph - N/A   Scattered Clouds
11:35 AM 48.2 °F - 46.4 °F 93% 30.19 in 10.0 mi NW 8.1 mph - N/A   Scattered Clouds
11:55 AM 48.2 °F - 46.4 °F 93% 30.19 in 10.0 mi WNW 5.8 mph 16.1 mph N/A   Mostly Cloudy
12:15 PM 46.4 °F 41.1 °F 42.8 °F 87% 30.19 in 10.0 mi WNW 11.5 mph 17.3 mph N/A   Overcast
12:35 PM 48.2 °F - 42.8 °F 82% 30.19 in 10.0 mi WNW 15.0 mph 20.7 mph N/A   Overcast
12:55 PM 46.4 °F 41.9 °F 39.2 °F 76% 30.19 in 10.0 mi WNW 9.2 mph 21.9 mph N/A   Overcast
1:15 PM 46.4 °F 43.5 °F 39.2 °F 76% 30.18 in 10.0 mi WNW 5.8 mph - N/A   Overcast
1:35 PM 46.4 °F 44.3 °F 37.4 °F 71% 30.18 in 10.0 mi WNW 4.6 mph - N/A   Overcast
1:55 PM 46.4 °F 41.5 °F 37.4 °F 71% 30.17 in 10.0 mi WNW 10.4 mph 16.1 mph N/A   Unknown
2:15 PM 44.6 °F 40.2 °F 37.4 °F 76% 30.17 in 10.0 mi WNW 8.1 mph 19.6 mph N/A   Overcast
2:35 PM 44.6 °F 40.2 °F 37.4 °F 76% 30.17 in 10.0 mi WNW 8.1 mph - N/A   Overcast
2:55 PM 44.6 °F 39.7 °F 37.4 °F 76% 30.18 in 10.0 mi WNW 9.2 mph 17.3 mph N/A   Overcast
3:15 PM 44.6 °F 39.2 °F 35.6 °F 71% 30.18 in 10.0 mi WNW 10.4 mph 17.3 mph N/A   Overcast
3:35 PM 42.8 °F 38.6 °F 35.6 °F 76% 30.19 in 10.0 mi NW 6.9 mph 17.3 mph N/A   Overcast
3:55 PM 42.8 °F 37.0 °F 33.8 °F 70% 30.19 in 10.0 mi WNW 10.4 mph 18.4 mph N/A   Overcast
4:15 PM 42.8 °F 39.3 °F 33.8 °F 70% 30.19 in 10.0 mi WNW 5.8 mph 19.6 mph N/A   Overcast
4:35 PM 42.8 °F 37.5 °F 33.8 °F 70% 30.19 in 10.0 mi WNW 9.2 mph - N/A   Overcast
4:55 PM 41.0 °F 37.1 °F 33.8 °F 76% 30.20 in 10.0 mi WNW 5.8 mph 16.1 mph N/A   Overcast
5:15 PM 41.0 °F 36.4 °F 33.8 °F 76% 30.20 in 10.0 mi WNW 6.9 mph - N/A   Overcast
5:35 PM 41.0 °F 38.0 °F 33.8 °F 76% 30.20 in 10.0 mi WNW 4.6 mph 16.1 mph N/A   Overcast
5:55 PM 41.0 °F 37.1 °F 32.0 °F 70% 30.20 in 10.0 mi WNW 5.8 mph - N/A   Overcast
6:15 PM 41.0 °F 35.8 °F 33.8 °F 76% 30.20 in 10.0 mi WNW 8.1 mph - N/A   Overcast
6:35 PM 39.2 °F 35.0 °F 32.0 °F 75% 30.21 in 10.0 mi WNW 5.8 mph - N/A   Overcast
6:55 PM 39.2 °F 33.6 °F 32.0 °F 75% 30.21 in 10.0 mi NW 8.1 mph 17.3 mph N/A   Overcast
7:15 PM 39.2 °F 35.0 °F 32.0 °F 75% 30.21 in 10.0 mi WNW 5.8 mph 9.2 mph N/A   Overcast
7:35 PM 39.2 °F 33.0 °F 32.0 °F 75% 30.22 in 10.0 mi NW 9.2 mph - N/A   Overcast
7:55 PM 39.2 °F 34.2 °F 32.0 °F 75% 30.23 in 10.0 mi WNW 6.9 mph - N/A   Overcast
8:15 PM 37.4 °F 31.4 °F 32.0 °F 81% 30.24 in 10.0 mi WNW 8.1 mph - N/A   Overcast
8:35 PM 37.4 °F 32.1 °F 32.0 °F 81% 30.24 in 10.0 mi NW 6.9 mph 16.1 mph N/A   Overcast
8:55 PM 37.4 °F 32.1 °F 32.0 °F 81% 30.24 in 10.0 mi WNW 6.9 mph - N/A   Overcast
9:15 PM 37.4 °F 32.1 °F 30.2 °F 75% 30.25 in 10.0 mi WNW 6.9 mph - N/A   Overcast
9:35 PM 37.4 °F 31.4 °F 30.2 °F 75% 30.24 in 10.0 mi WNW 8.1 mph - N/A   Overcast
9:55 PM 37.4 °F 30.3 °F 30.2 °F 75% 30.25 in 10.0 mi WNW 10.4 mph 17.3 mph N/A   Overcast
10:15 PM 35.6 °F 28.6 °F 30.2 °F 81% 30.25 in 10.0 mi NW 9.2 mph - N/A   Overcast
10:35 PM 35.6 °F 29.2 °F 28.4 °F 75% 30.25 in 10.0 mi WNW 8.1 mph - N/A   Overcast
10:55 PM 35.6 °F 30.7 °F 28.4 °F 75% 30.26 in 10.0 mi NW 5.8 mph - N/A   Mostly Cloudy
11:15 PM 33.8 °F 28.6 °F 28.4 °F 81% 30.26 in 10.0 mi WNW 5.8 mph - N/A   Scattered Clouds
11:35 PM 33.8 °F 30.8 °F 28.4 °F 81% 30.26 in 10.0 mi WNW 3.5 mph - N/A   Clear
11:55 PM 32.0 °F 26.4 °F 28.4 °F 87% 30.26 in 10.0 mi WNW 5.8 mph - N/A   Clear